GW0751 Weather Reports


Display with metric or nautical units.
time (UTC)temp
F
wind
direction
speed
MPH
gust
MPH
rain 1hr
in
rain 24hr
in
rain mn
in
humidity
%
barometer
mb
20260831122955 52 90 0.0 0.0 0.00 0.00 0.00 96 1011.1
20260831121935 52 270 0.0 0.0 0.00 0.00 0.00 96 1011.1
20260831121415 52 45 0.0 0.0 0.00 0.00 0.00 96 1011.0
20260831120855 52 45 0.0 0.0 0.00 0.00 0.00 96 1011.0
20260831120340 52 68 0.0 0.0 0.00 0.00 0.00 96 1011.1
20260831115820 52 225 0.0 0.0 0.00 0.00 0.00 96 1011.1
20260831115225 52 203 0.0 0.0 0.00 0.00 0.00 96 1011.1
20260831114645 52 225 0.0 0.0 0.00 0.00 0.00 96 1011.1
20260831114125 52 225 0.0 0.0 0.00 0.00 0.00 96 1011.1
20260831113610 52 225 0.0 0.0 0.00 0.00 0.00 96 1011.1
20260831111415 52 180 0.0 0.0 0.00 0.00 0.00 96 1011.1
20260831110855 52 225 0.0 0.0 0.00 0.00 0.00 96 1011.1
20260831110340 52 248 0.0 0.0 0.00 0.00 0.00 96 1010.9
20260831105820 52 180 0.0 0.0 0.00 0.00 0.00 96 1010.9
20260831105320 52 203 0.0 0.0 0.00 0.00 0.00 96 1010.9
20260831104800 52 225 0.0 0.0 0.00 0.00 0.00 95 1010.9
20260831104240 51 225 0.0 0.0 0.00 0.00 0.00 95 1010.9
20260831103725 51 203 0.0 0.0 0.00 0.00 0.00 95 1010.9
20260831102110 50 270 0.0 0.0 0.00 0.00 0.00 95 1010.9
20260831101550 50 225 0.0 0.0 0.00 0.00 0.00 95 1010.7
20260831101030 50 225 0.0 0.0 0.00 0.00 0.00 95 1010.7
20260831100511 50 225 0.0 0.0 0.00 0.00 0.00 95 1010.6
20260831095955 50 248 0.0 0.0 0.00 0.00 0.00 95 1010.6
20260831094915 50 225 0.0 0.0 0.00 0.00 0.00 95 1010.6
20260831094355 49 225 0.0 0.0 0.00 0.00 0.00 95 1010.6
20260831093320 49 225 0.0 0.0 0.00 0.00 0.00 95 1010.7
20260831092800 50 248 0.0 0.0 0.00 0.00 0.00 95 1010.6
20260831092240 50 225 0.0 0.0 0.00 0.00 0.00 95 1010.6
20260831091725 50 248 0.0 0.0 0.00 0.00 0.00 94 1010.6
20260831091145 50 248 0.0 0.0 0.00 0.00 0.00 94 1010.6
20260831090110 50 248 0.0 0.0 0.00 0.00 0.00 94 1010.8
20260831085550 50 225 0.0 0.0 0.00 0.00 0.00 94 1010.8
20260831085030 50 270 0.0 0.0 0.00 0.00 0.00 94 1010.8
20260831083955 49 270 0.0 0.0 0.00 0.00 0.00 93 1010.9
20260831083435 49 248 0.0 0.0 0.00 0.00 0.00 93 1010.9
20260831082915 49 248 0.0 0.0 0.00 0.00 0.00 93 1010.9
20260831081840 49 225 0.0 0.0 0.00 0.00 0.00 93 1010.9
20260831080800 49 225 0.0 0.0 0.00 0.00 0.00 92 1010.9
20260831080240 49 225 0.0 0.0 0.00 0.00 0.00 92 1010.9
20260831075725 49 225 0.0 0.0 0.00 0.00 0.00 92 1010.9
20260831074625 49 225 0.0 0.0 0.00 0.00 0.00 91 1010.9
20260831074110 50 225 0.0 0.0 0.00 0.00 0.00 91 1011.0
20260831073550 50 225 0.0 0.0 0.00 0.00 0.00 91 1011.0
20260831073030 50 225 0.0 0.0 0.00 0.00 0.00 91 1011.1
20260831072510 50 225 0.0 0.0 0.00 0.00 0.00 91 1011.1
20260831071957 50 225 0.0 0.0 0.00 0.00 0.00 91 1011.1
20260831071455 50 248 0.0 0.0 0.00 0.00 0.00 90 1011.0
20260831070935 50 225 0.0 0.0 0.00 0.00 0.00 89 1011.0
20260831070416 50 225 0.0 0.0 0.00 0.00 0.00 87 1010.9
20260831065915 50 225 0.0 0.0 0.00 0.00 0.00 87 1010.9
20260831065356 50 270 0.0 0.0 0.00 0.00 0.00 87 1010.9
20260831063855 51 225 0.0 0.0 0.00 0.00 0.00 88 1011.0
20260831063340 51 225 0.0 0.0 0.00 0.00 0.00 88 1011.0
20260831062741 51 248 0.0 0.0 0.00 0.00 0.00 88 1010.9
20260831062240 52 225 0.0 0.0 0.00 0.00 0.00 89 1010.9
20260831061740 52 45 0.0 0.0 0.00 0.00 0.00 89 1010.9
20260831060725 52 68 0.0 0.0 0.00 0.00 0.00 89 1010.9
20260831060226 52 90 0.0 0.0 0.00 0.00 0.00 89 1010.8
20260831055705 52 45 0.0 0.0 0.00 0.00 0.00 88 1010.8
20260831055145 52 45 0.0 0.0 0.00 0.00 0.00 85 1010.8
20260831054625 53 135 0.0 0.0 0.00 0.00 0.00 82 1010.8
20260831054110 53 270 0.0 0.0 0.00 0.00 0.00 83 1010.8
20260831053550 53 225 0.0 0.0 0.00 0.00 0.00 83 1010.8
20260831053030 54 225 0.0 0.0 0.00 0.00 0.00 83 1010.8
20260831052510 54 248 0.0 0.0 0.00 0.00 0.00 83 1010.8
20260831051436 54 248 0.0 0.0 0.00 0.00 0.00 82 1010.8
20260831050915 55 225 0.0 0.0 0.00 0.00 0.00 81 1010.8
20260831045840 55 68 0.0 0.0 0.00 0.00 0.00 80 1010.7
20260831045320 56 248 0.0 0.0 0.00 0.00 0.00 77 1010.8
20260831044801 56 203 0.0 0.0 0.00 0.00 0.00 76 1010.8
20260831044240 57 248 0.0 0.0 0.00 0.00 0.00 76 1010.8
20260831043725 57 45 0.0 0.0 0.00 0.00 0.00 77 1010.8
20260831043205 57 90 0.0 0.0 0.00 0.00 0.00 77 1010.8
20260831042646 57 90 0.0 0.0 0.00 0.00 0.00 77 1010.7
20260831041611 58 45 0.0 0.0 0.00 0.00 0.00 76 1010.5
20260831041051 59 68 0.0 0.0 0.00 0.00 0.00 71 1010.5
20260831040531 59 338 0.0 0.0 0.00 0.00 0.00 71 1010.4
20260831035455 60 45 0.0 0.0 0.00 0.00 0.00 68 1010.4
20260831034936 60 270 0.0 0.0 0.00 0.00 0.00 69 1010.3
20260831033856 61 225 0.0 0.0 0.00 0.00 0.00 66 1010.4
20260831032821 62 45 0.0 0.0 0.00 0.00 0.00 67 1010.3
20260831032300 62 248 0.0 0.0 0.00 0.00 0.00 66 1010.3
20260831031740 63 270 0.0 0.0 0.00 0.00 0.00 65 1010.2
20260831031240 64 203 0.0 0.0 0.00 0.00 0.00 63 1010.2
20260831030725 64 225 0.0 0.0 0.00 0.00 0.00 62 1010.2
20260831025645 66 248 0.0 0.0 0.00 0.00 0.00 61 1010.2
20260831025125 66 248 2.0 2.0 0.00 0.00 0.00 60 1010.2
20260831024611 67 248 2.0 2.0 0.00 0.00 0.00 59 1010.2
20260831023010 70 270 3.0 3.0 0.00 0.00 0.00 56 1010.3
20260831022456 71 248 3.0 3.0 0.00 0.00 0.00 55 1010.3
20260831021936 72 225 2.0 2.0 0.00 0.00 0.00 52 1010.3
20260831021415 72 270 2.0 2.0 0.00 0.00 0.00 51 1010.4
20260831020856 73 248 3.0 3.0 0.00 0.00 0.00 50 1010.4
20260831020340 74 225 3.0 3.0 0.00 0.00 0.00 48 1010.6
20260831015821 75 225 3.0 3.0 0.00 0.00 0.00 48 1010.6
20260831015301 75 225 3.0 3.0 0.00 0.00 0.00 47 1010.6
20260831014741 75 225 3.0 3.0 0.00 0.00 0.00 46 1010.6
20260831014225 75 248 3.0 3.0 0.00 0.00 0.00 46 1010.6
20260831013706 75 225 4.0 4.0 0.00 0.00 0.00 46 1010.6
20260831013145 75 203 3.0 3.0 0.00 0.00 0.00 46 1010.6
20260831012626 76 270 1.0 1.0 0.00 0.00 0.00 46 1010.7
20260831011611 76 203 4.0 4.0 0.00 0.00 0.00 45 1010.7
20260831011051 77 248 5.0 5.0 0.00 0.00 0.00 45 1010.7
20260831010531 78 203 5.0 5.0 0.00 0.00 0.00 44 1010.9
20260831010011 80 248 4.0 4.0 0.00 0.00 0.00 42 1010.9
20260831005456 81 270 4.0 4.0 0.00 0.00 0.00 42 1010.9
20260831004416 86 248 4.0 4.0 0.00 0.00 0.00 38 1010.8
20260831003856 87 248 4.0 4.0 0.00 0.00 0.00 37 1010.9
20260831003336 87 225 3.0 3.0 0.00 0.00 0.00 37 1010.9
20260831002821 87 225 3.0 3.0 0.00 0.00 0.00 39 1010.9
20260831002301 85 225 4.0 4.0 0.00 0.00 0.00 40 1010.9
20260831001741 84 270 5.0 5.0 0.00 0.00 0.00 39 1011.0
20260831001221 85 225 5.0 5.0 0.00 0.00 0.00 40 1011.0
20260831000706 85 248 5.0 5.0 0.00 0.00 0.00 38 1011.0
20260831000145 86 225 6.0 6.0 0.00 0.00 0.00 38 1011.1
20260830235626 88 248 5.0 5.0 0.00 0.00 0.00 37 1011.1
20260830234551 87 203 3.0 3.0 0.00 0.00 0.00 38 1011.0
20260830233531 88 293 5.0 5.0 0.00 0.00 0.00 37 1011.1
20260830233010 89 225 4.0 4.0 0.00 0.00 0.00 37 1011.1
20260830230356 89 315 3.0 3.0 0.00 0.00 0.00 37 1011.3
20260830225836 89 248 4.0 4.0 0.00 0.00 0.00 37 1011.3
20260830223606 88 225 5.0 5.0 0.00 0.00 0.00 39 1011.6
20260830223046 87 270 5.0 5.0 0.00 0.00 0.00 40 1011.6
20260830222531 86 113 6.0 6.0 0.00 0.00 0.00 41 1011.6
20260830222011 86 248 4.0 4.0 0.00 0.00 0.00 41 1011.6
20260830221451 86 158 5.0 5.0 0.00 0.00 0.00 40 1011.7
20260830220951 86 248 7.0 7.0 0.00 0.00 0.00 40 1011.7
20260830220431 86 158 5.0 5.0 0.00 0.00 0.00 41 1011.9
20260830215856 86 203 5.0 5.0 0.00 0.00 0.00 41 1011.9
20260830215336 85 203 5.0 5.0 0.00 0.00 0.00 42 1012.1
20260830214816 86 158 5.0 5.0 0.00 0.00 0.00 41 1012.1
20260830214256 86 225 5.0 5.0 0.00 0.00 0.00 42 1012.1
20260830213741 86 225 5.0 5.0 0.00 0.00 0.00 42 1012.4
20260830213221 86 225 5.0 5.0 0.00 0.00 0.00 43 1012.4
20260830212701 85 225 6.0 6.0 0.00 0.00 0.00 43 1012.4
20260830211626 86 203 6.0 6.0 0.00 0.00 0.00 43 1012.4
20260830211046 87 203 5.0 5.0 0.00 0.00 0.00 42 1012.4
20260830210451 87 180 5.0 5.0 0.00 0.00 0.00 42 1012.4
20260830204741 89 270 4.0 4.0 0.00 0.00 0.00 42 1012.4
20260830204201 87 270 3.0 3.0 0.00 0.00 0.00 43 1012.6
20260830203641 89 225 4.0 4.0 0.00 0.00 0.00 42 1012.6
20260830203126 87 225 4.0 4.0 0.00 0.00 0.00 44 1012.6
20260830202106 88 248 4.0 4.0 0.00 0.00 0.00 43 1012.8
20260830201546 88 293 3.0 3.0 0.00 0.00 0.00 43 1012.8
20260830201006 87 23 4.0 4.0 0.00 0.00 0.00 44 1012.8
20260830195836 87 158 5.0 5.0 0.00 0.00 0.00 44 1012.9
20260830194756 86 0 5.0 5.0 0.00 0.00 0.00 44 1012.9
20260830194236 87 248 4.0 4.0 0.00 0.00 0.00 44 1013.0
20260830193201 87 248 4.0 4.0 0.00 0.00 0.00 44 1013.0
20260830192641 85 113 4.0 4.0 0.00 0.00 0.00 46 1013.1
20260830191621 86 113 5.0 5.0 0.00 0.00 0.00 44 1013.1
20260830191106 86 225 3.0 3.0 0.00 0.00 0.00 43 1013.1
20260830190546 87 90 3.0 3.0 0.00 0.00 0.00 43 1013.1
20260830190026 86 90 5.0 5.0 0.00 0.00 0.00 43 1013.1
20260830185506 86 270 3.0 3.0 0.00 0.00 0.00 44 1013.1
20260830184951 87 113 3.0 3.0 0.00 0.00 0.00 43 1013.3
20260830184431 87 90 3.0 3.0 0.00 0.00 0.00 43 1013.3
20260830183911 85 135 3.0 3.0 0.00 0.00 0.00 44 1013.3
20260830183351 84 45 3.0 3.0 0.00 0.00 0.00 45 1013.3
20260830181736 84 90 4.0 4.0 0.00 0.00 0.00 46 1013.4
20260830181221 84 180 3.0 3.0 0.00 0.00 0.00 45 1013.4
20260830180141 82 315 2.0 2.0 0.00 0.00 0.00 46 1013.3
20260830175621 81 23 1.0 1.0 0.00 0.00 0.00 48 1013.3
20260830175121 82 113 3.0 3.0 0.00 0.00 0.00 48 1013.3
20260830174621 83 68 3.0 3.0 0.00 0.00 0.00 46 1013.3
20260830174106 82 225 2.0 2.0 0.00 0.00 0.00 47 1013.4
20260830173546 82 90 4.0 4.0 0.00 0.00 0.00 47 1013.4
20260830173026 81 90 3.0 3.0 0.00 0.00 0.00 47 1013.4
20260830172506 80 90 2.0 2.0 0.00 0.00 0.00 49 1013.3
20260830172006 78 90 2.0 2.0 0.00 0.00 0.00 50 1013.3
20260830171451 78 90 3.0 3.0 0.00 0.00 0.00 51 1013.3
20260830170412 77 90 2.0 2.0 0.00 0.00 0.00 53 1013.4
20260830165851 75 45 3.0 3.0 0.00 0.00 0.00 54 1013.4
20260830165336 75 113 2.0 2.0 0.00 0.00 0.00 54 1013.3
20260830164816 75 68 4.0 4.0 0.00 0.00 0.00 55 1013.3
20260830164236 74 45 2.0 2.0 0.00 0.00 0.00 55 1013.3
20260830163716 74 113 4.0 4.0 0.00 0.00 0.00 55 1013.3
20260830163201 74 45 3.0 3.0 0.00 0.00 0.00 55 1013.3
20260830162641 74 90 2.0 2.0 0.00 0.00 0.00 56 1013.3
20260830162121 73 248 3.0 3.0 0.00 0.00 0.00 56 1013.3
20260830161601 71 45 2.0 2.0 0.00 0.00 0.00 59 1013.3
20260830160851 69 23 2.0 2.0 0.00 0.00 0.00 61 1013.3
20260830160331 69 45 3.0 3.0 0.00 0.00 0.00 61 1013.4
20260830155256 70 90 3.0 3.0 0.00 0.00 0.00 61 1013.4
20260830154736 69 338 4.0 4.0 0.00 0.00 0.00 62 1013.4
20260830154216 69 23 3.0 3.0 0.00 0.00 0.00 63 1013.3
20260830153701 67 0 3.0 3.0 0.00 0.00 0.00 64 1013.3
20260830153141 66 45 3.0 3.0 0.00 0.00 0.00 65 1013.3
20260830152622 65 45 3.0 3.0 0.00 0.00 0.00 65 1013.1
20260830152101 65 0 4.0 4.0 0.00 0.00 0.00 65 1013.1
20260830151546 66 113 3.0 3.0 0.00 0.00 0.00 66 1013.1
20260830151026 66 113 3.0 3.0 0.00 0.00 0.00 67 1013.1
20260830150506 64 113 2.0 2.0 0.00 0.00 0.00 69 1013.1
20260830145946 62 45 1.0 1.0 0.00 0.00 0.00 73 1013.1
20260830145432 61 113 2.0 2.0 0.00 0.00 0.00 74 1013.1
20260830143832 54 203 0.0 0.0 0.00 0.00 0.00 94 1013.0
20260830143317 53 248 0.0 0.0 0.00 0.00 0.00 95 1013.0
20260830142757 52 248 0.0 0.0 0.00 0.00 0.00 95 1012.8
20260830142236 51 248 0.0 0.0 0.00 0.00 0.00 95 1012.8
20260830141717 50 248 0.0 0.0 0.00 0.00 0.00 94 1012.6
20260830140641 48 225 0.0 0.0 0.00 0.00 0.00 94 1012.6
20260830135601 48 225 0.0 0.0 0.00 0.00 0.00 93 1012.6
20260830135046 47 248 0.0 0.0 0.00 0.00 0.00 93 1012.4
20260830134007 47 203 0.0 0.0 0.00 0.00 0.00 94 1012.2
20260830133447 48 203 0.0 0.0 0.00 0.00 0.00 94 1012.2
20260830132946 48 203 0.0 0.0 0.00 0.00 0.00 94 1012.1
20260830132432 48 270 0.0 0.0 0.00 0.00 0.00 94 1012.1
20260830131913 48 293 0.0 0.0 0.00 0.00 0.00 94 1012.1
20260830131351 48 225 0.0 0.0 0.00 0.00 0.00 94 1012.1
20260830130831 49 225 0.0 0.0 0.00 0.00 0.00 94 1012.1
20260830130317 49 225 0.0 0.0 0.00 0.00 0.00 94 1012.1
20260830125757 49 270 0.0 0.0 0.00 0.00 0.00 94 1012.1
20260830125237 49 248 0.0 0.0 0.00 0.00 0.00 93 1012.1
20260830123642 49 248 0.0 0.0 0.00 0.00 0.00 93 1011.9